Other Surface Observations
Issued by NWS

Home | Current Version | Previous Version | Text Only | Print | Product List | Glossary On
Versions: 1 2 3 4 5 6 7 8 9 10 11 12 13 14 15 16 17 18 19 20 21 22 23 24 25 26 27 28 29 30 31 32 33 34 35 36 37 38 39 40 41 42 43 44 45 46 47 48 49 50
000
SXUS52 KTAE 231018
OSOTAE
OSOTAE
North Florida/South Alabama/Southwest Georgia Weather Roundup
National Weather Service Tallahassee Florida
600 AM EDT THU OCT 23 2014

Note: "fair" indicates few or no clouds below 12,000 feet with no
significant weather and/or obstructions to visibility.

!FLZ017-115-028-034-025-231100
...North Florida...

CITY           SKY/WX    TMP DP  RH WIND       PRES   REMARKS
TALLAHASSEE    CLEAR     49  43  80 CALM      30.04S
APALACHICOLA   CLEAR     55  48  77 NE7       30.03R
PERRY          CLEAR     50  46  87 NE5       30.05S
CROSS CITY       N/A     44  42  93 CALM      30.03R
JACKSONVILLE   CLEAR     53  47  79 N8        30.03R
$$

!FLZ112-006-005-002-011-231100
...Florida Panhandle...

CITY           SKY/WX    TMP DP  RH WIND       PRES   REMARKS
MARIANNA       CLEAR     45  45 100 CALM      30.06R
BONIFAY        NOT AVBL
PANAMA CITY NW FAIR      48  44  86 CALM      30.04R
TYNDALL AFB    CLEAR     55  47  74 E5        30.05R
TYND DRONE APT FAIR      53  49  84 MISG      30.03R
DE FUNIAK SPR  FAIR      51  45  80 NE8       30.06S
EGLIN AFB      CLEAR     50  44  81 NE8       30.04F
DESTIN         CLEAR     57  48  72 NE8       30.04F
HURLBURT       CLEAR     50  41  71 NE7       30.04S
CRESTVIEW      CLEAR     42  41  96 NE3       30.06F
PENSACOLA      CLEAR     55  45  68 NE6       30.05R
$$

!ALZ063-066-231100
...South Alabama...

CITY           SKY/WX    TMP DP  RH WIND       PRES   REMARKS
DOTHAN         CLEAR     44  42  93 N5        30.11R WCI  42
OZARK CAIRNS   CLEAR     47  43  84 NE5       30.07R
FT RUCKER HELI CLEAR     41  40  96 CALM      30.07R
RUCKER HELI 3  FAIR      46  43  92 N5        30.09R WCI  43
RUCKER HELI 2  FAIR      48  43  82 N3        30.08R
FLORALA APT    CLEAR     44  41  89 NE5       30.07S WCI  42
ANDALUSIA      CLEAR     50  42  74 E3        30.07R
TROY           CLEAR     39  37  92 CALM      30.09S
EUFALA         FAIR      42  40  92 CALM      30.08R
MOBILE         CLEAR     49  45  86 NE9       30.07F WCI  45
$$

!GAZ120>161-231100
...Southwest and South Central Georgia...

CITY           SKY/WX    TMP DP  RH WIND       PRES   REMARKS
THOMASVILLE    FAIR      46  46 100 CALM      30.06F
BAINBRIDGE     CLEAR     48  46  93 CALM      30.06S
MOODY AFB      CLEAR     46  42  87 CALM      30.06R
VALDOSTA       CLEAR     44  40  85 CALM      30.06R
MOULTRIE       CLEAR     52  46  82 CALM      30.07S
BLAKELY        CLEAR     45  43  93 CALM        N/A
ALBANY         CLEAR     46  43  89 CALM      30.09S
TIFTON         FAIR      48  44  85 NE3       30.06S
FITZGERALD     FAIR      49  44  81 NE6       30.10S
CORDELE        FAIR      44  42  91 CALM      30.09S
AMERICUS       FAIR      45  43  93 NE6       30.09R WCI  41
HOMERVILLE     FAIR      45  45 100 CALM      30.07R
$$

!GMZ750-755-770-775-231100
...Coastal and Buoy Obs...

STATION/POSITION TIME  TEMP    WIND        PRES    VSBY  WAVE
                       AIR SEA DIR/SP/G                  HT/PER
                 (UTC) (F)     (DEG/KT/KT) (MB)    (MI)  (FT/S)
KEATON BEACH     1000   50      40/  4/  6 1017.3R
CEDAR KEY        1000   60      40/  8/ 11 1016.6R
C TOWER          1000   68      70/ 17/ 19 1016.2R
APALACHICOLA BUO 1000   72 81   80/ 17/ 23 1015.0R         4/ 5
PANAMA CITY BUOY 0919   73 80   60/ 16/ 19 1015.1R         5/ 6
MOBILE BUOY      0935   72 78   50/ 16/ 19 1016.7R         5/ 6
ORANGE BCH AL BU 1000   67 78   30/ 16/ 19 1016.6R         3/ 5
$$



USA.gov is the U.S. government's official web portal to all federal, state and local government web resources and services.